Погода в Чишмах

Россия / Республика Башкортостан     54°35′21″N   55°22′48″E
темп.,
°C
ветер,
м/с
пор.,
м/с
влажн.,
%
обл.,
%
осадки,
мм/ч
давл.,
гПа
погр.,
м
17 мая, пн
пн1723:00+22ююз234669 0.0 101932
02:00+19юз455677 0.3 101970
05:00+18вюв225918 0.3 101916
08:00+21ююз365979 0.0 1020192
11:00+26юз564377 0.0 1020552
14:00+30юз463025 0.0 10192682
17:00+28зюз453688 0.0 10181216
20:00+23св345378 0.0 101896
18 мая, вт
вт1823:00+20ю335518 0.2 101823
02:00+18юз47574 0.0 1018101
05:00+17зюз225658 0.0 101820
08:00+21зсз12485 0.0 1018133
11:00+25ссз234618 0.0 1018652
14:00+28с33455 0.0 10171384
17:00+28с56425 0.0 10172054
20:00+23ссв5105690 0.0 1017334
19 мая, ср
ср1923:00+18ссв38645 0.0 1018148
02:00+16св49688 0.0 1019209
05:00+13св39790 0.0 1020206
08:00+16всв34710 0.0 1020240
11:00+21всв44570 0.0 1021733
14:00+24вюв45420 0.0 10201432
17:00+25юв44360 0.0 10201675
20:00+22ююв224713 0.0 102025
20 мая, чт
чт2023:00+17юв24532 0.0 102144
02:00+14ююв3105821 0.0 1022176
05:00+12ююв235991 0.0 102434
08:00+16ююв365588 0.0 1024273
11:00+20юв444223 0.0 1024969
14:00+23юв44360 0.0 10231559
17:00+24юв23330 0.0 10221658
20:00+22сз11440 0.0 102111
21 мая, пт
пт2123:00+17св22470 0.0 102211
02:00+15юв11565 0.0 102211
05:00+14в11620 0.0 102311
08:00+18юв125739 0.0 1023169
11:00+22ю2245100 0.0 1022622
14:00+24ю223498 0.0 10221696
17:00+25ю223196 0.0 10211879
20:00+22юз1146100 0.0 102111